www.pogodaiklimat.ru
ПОГОДА в Ираеле

Архив погоды в Ираеле (Коми, Россия)

Время
(UTC), дата
21 18.02
00 19.02
03 19.02
06 19.02
09 19.02
12 19.02
15 19.02
18 19.02
21 19.02
00 20.02
03 20.02
06 20.02
09 20.02
12 20.02
15 20.02
18 20.02
21 20.02
00 21.02
03 21.02
06 21.02
09 21.02
12 21.02
15 21.02
18 21.02
21 21.02
00 22.02
03 22.02
06 22.02
09 22.02
12 22.02
15 22.02
18 22.02
21 22.02
00 23.02
03 23.02
06 23.02
09 23.02
12 23.02
15 23.02
18 23.02
21 23.02
00 24.02
03 24.02
06 24.02
09 24.02
12 24.02
15 24.02
18 24.02
21 24.02
00 25.02
03 25.02
09 25.02
Ветер
(напр.,м/с)
Видим. Явления Облачность Т
(С)
Тd
(С)
f
(%)
Тe
(С)
Тes
(С)
Комфортность P
(гПа)
Po
(гПа)
Тmin
(С)
Tmax
(С)
R
(мм)
R24
(мм)
S
(см)
Ю 4 4000 м слаб. снег {метель} 10/10 300 м [Frnb] -10.5 -12.6 85 -18 -18 1006.4 986.1
ЮЗ 4 10 км слаб. снег {метель} 10/10 360 м [Frnb] -10.3 -12.3 85 -17 -17 1006.9 986.6
ЮЗ 3 10 км слаб. снег {метель} 10/10 300 м [Frnb] -11.1 -13.0 86 -17 -17 1007.4 987.1 -12.1 0.8 71
ЮЗ 3 10 км в посл. час снег {метель} 10/0 [Ac As Ci sp] -11.6 -13.4 86 -18 -17 1007.9 987.4
ЮЗ 3 10 км слаб. снег 10/8 420 м [Sc As op] -10.1 -12.1 85 -16 -16 1009.9 989.5
ЮЗ 3 4000 м слаб. ливневой снег 10/8 330 м [Cb cap Ac As] -8.3 -10.0 88 -14 -14 1011.4 991.1
ЮЗ 4 10 км слаб. ливневой снег {метель} 9/6 630 м [Cb cap Ac As] -8.0 -9.4 90 -15 -15 1013.0 992.6 -7.6 0.6
ЮЗ 4 10 км слаб. ливневой снег {метель} 10/8 360 м [Cb cap Ac As] -7.2 -8.9 88 -14 -14 1013.2 993.0
ЮЗ 4 {11} 10 км позёмок {ливн. снег, метель} 10/10 330 м [Frnb] -7.6 -9.4 87 -14 -14 1014.0 993.6
ЮЗ 5 {11} 10 км позёмок {ливн. снег, метель} 10/10 300 м [Frnb] -8.1 -9.5 90 -16 -16 1014.4 994.0
ЮЗ 6-11 {11} 10 км слаб. ливневой снег {метель} 10/10 270 м [Cb cap] -8.2 -9.7 89 -17 -17 1012.2 991.9 -8.2 0.0 70
ЮЗ 6-11 {12} 10 км слаб. ливневой снег {метель} 10/10 360 м [Cb cap] -7.1 -9.2 85 -15 -15 1010.7 990.6
ЮЗ 6-10 {12} 10 км слаб. снег {ливн. снег} 10/8 360 м [Frnb As op] -6.6 -8.9 84 -15 -15 1009.7 989.6
ЮЗ 4 {12} 10 км слаб. снег {ливн. снег} 10/9 400 м [Frnb As op] -6.0 -8.0 86 -13 -13 1008.2 988.1
ЮЗ 6-10 {14} 4000 м слаб. снег {метель} 10/10 570 м [Sc] -5.6 -8.3 81 -13 -13 1008.0 987.9 -5.5 0.3
ЮЗ 5-10 {14} 2000 м снег {метель} 10/9 240 м [Frnb As op] -5.9 -7.3 90 -13 -13 1009.8 987.9
ЮЗ 5 {12} 4000 м слаб. снег {метель} 10/8 270 м [Frnb As op] -5.6 -7.1 89 -13 -13 1008.5 988.4
ЮЗ 4 {12} 10 км {снег, метель} 10/10 400 м [Cb cap] -5.5 -7.6 85 -12 -12 1011.0 990.9
ЮЗ 2 10 км {метель} 4/0 [Ac trans] -7.9 -8.9 93 -12 -12 1013.4 993.0 -7.9 0.9 67
ЮЗ 3 10 км {метель} 8/3 600 м [Cb cap Ac cast Cc] -7.9 -9.3 90 -14 -13 1015.3 994.9 -9.1
ЮЗ 3 10 км 8/4 600 м [Cu hum Cc] -5.8 -9.0 78 -11 -11 1016.6 996.4
ЮЗ 3 10 км 9/9 600 м [Cb cap] -6.1 -9.3 78 -12 -12 1018.1 997.8
ЮЗ 4 10 км {ливн. снег} 9/9 630 м [Cb cap] -7.4 -10.1 81 -14 -14 1019.4 998.9 -5.7 0.0
Ю 2 10 км слаб. ливневой снег 9/9 660 м [Cb cap] -10.1 -10.9 94 -15 -15 1019.6 999.0
Ю 2 10 км слаб. ливневой снег 9/9 630 м [Cb cap] -9.1 -10.1 92 -14 -14 1019.5 999.0
Ю 2 10 км слаб. ливневой снег 10/10 300 м [Cb cap] -8.8 -9.7 93 -13 -13 1019.6 999.1
Ю 2 10 км слаб. ливневой снег 10/10 300 м [Cb cap] -8.2 -9.1 93 -13 -13 1019.2 998.7 -10.8 0.0 67
Ю 2 10 км слаб. снег {ливн. снег} 10/8 270 м [Frnb Ac As] -7.2 -8.6 90 -12 -12 1018.9 998.6
ЮЗ 3 10 км слаб. ливневой снег 10/8 400 м [Cb cap Ac cast Cc] -5.9 -8.4 82 -11 -11 1019.5 999.2
ЮЗ 3 10 км слаб. ливневой снег 10/10 420 м [Cb cap] -5.7 -7.9 84 -11 -11 1019.1 998.8
ЮЗ 3 10 км в посл. час ливневой снег 10/10 600 м [Cb cap] -5.7 -7.7 86 -11 -11 1019.3 999.0 -5.4 0.7
ЮЗ 4 10 км слаб. ливневой снег {метель} 10/10 600 м [Cb cap] -6.3 -8.9 82 -13 -13 1019.6 999.3
ЮЗ 3 {10} 10 км слаб. ливневой снег {метель} 10/8 660 м [Cb cap Ac und] -7.0 -9.5 82 -13 -13 1019.3 999.0
Ю 4 {10} 10 км позёмок {ливн. снег, метель} 10/10 450 м [Sc] -7.5 -9.3 87 -14 -14 1019.3 998.8
Ю 4 4000 м слаб. снег {метель} 10/8 210 м [Frnb As op] -7.8 -9.1 90 -15 -15 1018.1 997.6 -7.8 1 69
ЮЗ 5 10 км слаб. снег {метель} 10/8 330 м [Frnb As op] -7.4 -9.1 88 -15 -15 1018.9 998.4
ЮЗ 4 10 км слаб. ливневой снег 10/10 300 м [Cb cap] -6.8 -8.7 86 -13 -13 1018.7 998.4
ЮЗ 4 10 км слаб. снег {ливн. снег} 10/8 300 м [Frnb Ac As] -5.9 -7.7 87 -12 -12 1018.9 998.6
ЮЗ 5 {10} 10 км слаб. снег {метель} 10/10 240 м [Frnb] -5.8 -7.1 91 -13 -13 1020.7 1000.4 -5.8 1
ЮЗ 4 {10} 10 км слаб. снег {метель} 10/10 330 м [Frnb] -5.1 -6.6 89 -12 -12 1020.9 1000.7
ЮЗ 3 10 км {снег, метель} 10/10 300 м [Frnb] -5.0 -6.5 89 -11 -11 1021.5 1001.3
ЮЗ 5 10 км позёмок {снег, метель} 10/10 210 м [Frnb] -5.4 -6.0 96 -13 -13 1022.6 1002.3
ЮЗ 4 10 км позёмок {метель} 10/10 240 м [Frnb] -6.1 -6.7 96 -13 -13 1022.9 1002.5 -6.1 0.0 67
ЮЗ 5 10 км позёмок {метель} 10/8 210 м [Frnb As trans] -5.4 -6.1 95 -13 -13 1023.3 1002.9
ЮЗ 5 10 км {метель} 10/10 270 м [St] -4.0 -5.1 92 -11 -11 1023.1 1002.8
ЮЗ 3 10 км {метель} 10/10 270 м [Frnb] -3.7 -5.0 91 -9 -9 1023.3 1003.0
ЮЗ 4 10 км 10/10 240 м [St] -4.3 -5.3 93 -11 -11 1023.7 1003.4 -3.4
ЮЗ 4 10 км 10/10 210 м [St] -4.3 -5.1 94 -11 -11 1023.5 1003.2
ЮЗ 4 10 км слаб. переохл. морось (гололёд) [диам. гололёда 0 мм] 10/10 150 м [St] -3.8 -4.1 98 -10 -10 1023.9 1003.6
ЮЗ 4 10 км слаб. снег {морось} [диам. гололёда 0 мм] 10/10 180 м [St] -3.4 -4.0 96 -10 -10 1022.7 1002.6
Ю 3 10 км слаб. снег [диам. гололёда 0 мм] 10/10 270 м [Frnb] -3.1 -3.9 94 -8 -8 1022.1 1002.1 -4.5 0.0 66
ЮЗ 4 10 км в посл. час ливневой снег 10/10 210 м [Cb cap] -1.7 -2.2 96 -8 -8 1019.4 999.4
Местоположение метеостанции Ираель (Коми, Россия): широта 64.52 долгота 55.40 высота над уровнем моря 157 м.
В архиве по умолчанию представлена погода в Ираеле за последнюю неделю. Архивные данные за месяц целиком и за предыдущие месяцы, начиная с января 2011 года, Вы можете получить, выбрав интересующий диапазон дат из раскрывающегося списка и нажав кнопку "Найти!".
*Определитесь, кто Вы:
Внимание! Время в таблицах - всемирное. Для получения местного времени необходимо прибавить поправку, которая равна 3 ч.
Некоторые строки с данными для отдельных станций могут быть выделены курсивом. Это означает, что фактические данные отсутствуют по различным причинам, а приведенные значения являются расчетными модельными данными для данного пункта наблюдений.
Смотрите также архив погоды в соседних городах и на ближайших метеорологических станциях:
Партнеры нашего сайта:      
Пояснения к столбцам:
  • Ветер - указаны скорость ветра в м/с - средняя за 10 мин, порывы в срок и между сроками (в фигурных скобках) и направление, откуда дует ветер: С - северный,
  • СВ - северо-восточный, В - восточный, ЮВ - юго-восточный, Ю - южный, ЮЗ - юго-западный, З - западный, СЗ - северо-западный.
  • Видимость - горизонтальная дальность видимости в метрах или километрах. При видимости от 1 до 10 км при отсутствии осадков обычно наблюдается дымка, при ухудшении видимости до 1 км и менее - туман. В сухую погоду видимость может ухудшаться дымом, пылью или мглою.
  • Явления - указаны атмосферные явления, наблюдавшиеся в срок или в последний час перед сроком; фигурными скобками обозначены явления, наблюдавшиеся между сроками (за 1-3 часа до срока); квадратными скобками обозначены град или гололедные отложения с указанием их диаметра в мм.
  • Облачность - указаны через наклонную черту общая и нижняя облачность в баллах и высота нижней границы облаков в метрах; квадратными скобками обозначены формы облаков: Ci - перистые, Cs - перисто-слоистые, Cc - перисто-кучевые, Ac - высококучевые, As - высокослоистые, Sc - слоисто-кучевые, Ns - слоисто-дождевые, Cu - кучевые, Cb - кучево-дождевые. Подробнее классификацию облаков см. в Атласе облаков (PDF).
  • T - Температура воздуха - температура, измеренная на высоте 2 м над землей.
  • Td - Температура точки росы - температура, при понижении до которой содержащийся в воздухе водяной пар достигнет насыщения.
  • f - Относительная влажность воздуха - влажноcть воздуха, измеренная на высоте 2 м над землей.
  • Te - Эффективная температура - температура, которую ощущает одетый по сезону человек в тени. Характеристика душности погоды. При расчете учитывается влияние влажности воздуха и скорости ветра на теплоощущения человека.
  • Tes - Эффективная температура на солнце - температура, которую ощущает человек, с поправкой на солнечный нагрев. Характеристика знойности погоды. Зависит от высоты солнца над горизонтом, облачности и скорости ветра. Ночью, в пасмурную погоду, а также при ветре 12 м/с и более поправка равна нулю.
  • P - Атмосферное давление - приведенное к уровню моря атмосферное давление.
  • Po - Атмосферное давление - измеренное на уровне метеостанции атмосферное давление.
  • Tmin - Минимальная температура - минимум температуры воздуха на высоте 2 м над землей.
  • Tmax - Максимальная температура - максимум температуры воздуха на высоте 2 м над землей.
  • R - Количество осадков - Количество выпавших осадков за период времени, мм. При наведении курсора мыши на число - период времени, за который выпало указанное количество осадков.
  • R24 - Количество осадков - Количество выпавших осадков за 24 часа, мм.
  • S - Снежный покров - Высота снежного покрова, см. При наведении курсора мыши на число - состояние снежного покрова и степень покрытия местности в баллах.